Vorticity
4 4 3 4 4 5 5 6 5 5 6 5 5 3 4 4 5 4 4 4 3 4 4 5 5 5 5 4 4 4 4 4 5 4 2 0 2 0 -3 3 19 10 6
3 4 4 4 4 4 4 5 6 4 6 4 1 4 4 4 5 5 4 4 3 3 3 4 4 4 5 4 3 3 4 4 4 3 2 1 5 6 -1 8 12 6 8
2 2 2 3 4 4 4 5 4 4 3 5 -5 11 4 4 4 5 5 4 4 4 3 4 4 4 4 3 3 2 3 4 3 4 4 1 14 2 1 6 15 9 9
3 3 5 4 3 5 5 3 5 3 6 -4 3 10 4 5 4 4 4 5 4 3 4 4 4 4 4 4 3 4 3 3 4 6 6 17 2 1 3 11 11 7 7
4 6 4 4 4 3 3 5 7 4 7 -7 5 6 4 5 5 4 4 5 5 5 4 4 4 4 4 4 5 5 4 4 6 6 10 0 -2 4 5 10 9 8 6
4 6 5 4 5 5 6 7 3 5 2 -11 10 6 5 4 6 3 6 6 6 5 5 5 5 5 5 6 6 7 5 7 6 6 4 3 4 8 7 4 8 9 7
26 5 -0 3 5 5 7 3 -6 6 -3 0 10 5 5 7 6 8 5 7 7 8 6 5 5 5 5 6 7 8 7 1 6 9 6 11 7 10 7 6 5 7 8
1 13 9 7 5 12 2 -2 15 9 8 13 0 2 3 2 4 3 7 7 9 7 8 7 6 7 7 7 7 5 3 11 9 12 9 3 6 7 5 2 5 6 11
7 4 4 4 0 8 11 11 2 14 -4 14 14 7 7 11 8 13 11 9 9 7 7 1 10 7 7 3 2 11 5 7 8 6 5 5 3 1 4 4 10 10 9
34 32 37 33 26 11 12 5 17 28 20 35 5 1 8 6 8 6 9 8 8 20 22 15 15 11 11 12 13 4 7 4 5 4 6 10 11 8 6 7 7 8 9
40 -16 -12 -10 -19 -1 26 -12 -1 15 2 -8 14 -16 16 -3 2 5 -7 1 1 2 1 5 4 8 7 7 7 5 10 11 16 14 9 5 7 5 7 12 16 14 15
-11 22 2 -3 26 10 -2 -11 -6 3 -1 18 6 -9 -15 15 21 21 12 18 19 -1 3 7 9 10 11 15 10 8 4 -2 3 1 0 7 7 10 16 22 19 17 20
-9 2 -7 -21 -29 11 5 11 8 8 2 27 43 19 44 7 9 9 3 -0 6 9 15 17 24 13 7 15 15 17 13 8 10 4 6 5 11 8 8 5 10 13 15
17 -17 -2 7 -11 -17 22 19 2 -4 13 -35 -37 2 15 9 16 2 1 9 27 5 45 1 16 11 2 6 7 5 6 8 12 12 11 9 7 9 11 12 13 11 12
73 63 -27 -36 25 48 24 32 25 0 52 33 42 32 27 11 18 13 2 13 56 9 2 1 11 9 10 7 6 7 8 7 10 10 13 15 17 16 17 16 16 16 13
5 -4 28 5 34 16 14 37 41 29 6 -8 5 10 5 15 8 27 21 5 5 1 6 6 7 8 9 6 6 7 7 5 12 18 17 16 15 13 13 12 12 14 13
3 3 9 7 9 -1 0 31 1 2 18 1 6 4 3 12 9 0 1 8 2 5 6 5 7 8 6 3 9 6 12 9 5 8 14 9 8 8 10 9 9 16 7
4 9 4 1 -4 5 6 -1 1 3 -8 4 -3 3 2 -0 4 3 7 4 7 3 3 4 7 16 2 3 4 6 6 6 3 2 2 13 11 6 9 9 10 9 9
10 15 11 10 -1 6 3 1 -2 -4 -2 1 6 3 4 7 7 2 11 5 5 0 -0 1 3 5 6 5 2 0 5 5 10 13 7 6 11 12 10 10 18 16 14
2 7 7 6 9 9 5 10 15 21 15 18 10 11 3 6 12 10 8 6 2 4 4 3 6 9 7 1 2 7 11 9 11 7 11 8 12 12 13 18 12 13 12
11 13 13 16 9 6 9 9 8 7 10 8 13 14 14 12 9 6 8 7 4 3 4 5 8 10 9 1 2 8 9 13 14 15 10 10 11 12 15 14 15 8 20
6 3 7 8 10 11 8 9 6 6 9 4 5 6 6 7 8 9 8 6 5 5 6 5 6 10 5 5 5 12 10 12 11 6 8 7 13 13 13 14 9 12 16
3 5 7 5 5 5 5 7 8 8 3 5 7 7 8 5 8 5 4 4 2 2 4 5 10 11 7 0 9 11 10 9 6 10 6 5 10 22 8 19 11 9 10
7 9 8 6 7 5 2 4 3 5 6 6 4 3 3 2 1 10 4 10 -3 -1 10 12 14 9 9 3 8 8 6 5 12 15 13 14 12 16 13 14 14 18 -1
6 4 8 13 14 12 13 14 10 13 15 11 13 10 6 10 7 8 8 8 8 11 11 11 11 10 5 7 6 7 8 12 13 14 15 17 17 12 9 9 16 7 10
15 16 7 6 4 6 11 18 19 13 14 14 9 5 7 6 7 7 9 10 11 11 13 11 11 6 8 7 5 9 12 14 13 13 17 15 12 11 12 9 13 16 11
Height
5823 5825 5830 5832 5836 5838 5840 5842 5844 5846 5849 5850 5851 5852 5852 5854 5854 5855 5855 5855 5855 5854 5854 5853 5853 5851 5850 5849 5848 5847 5845 5842 5840 5838 5835 5833 5832 5829 5825 5822 5819 5816 5813
5815 5819 5823 5827 5829 5832 5833 5837 5838 5841 5843 5845 5845 5848 5847 5848 5849 5849 5850 5849 5849 5849 5848 5848 5847 5846 5846 5844 5842 5841 5840 5837 5836 5833 5832 5829 5826 5823 5818 5815 5812 5809 5806
5809 5812 5816 5820 5822 5825 5826 5830 5832 5834 5835 5839 5839 5842 5842 5843 5843 5843 5844 5843 5843 5843 5842 5842 5842 5841 5840 5839 5836 5833 5832 5831 5829 5827 5825 5822 5819 5815 5812 5808 5804 5802 5801
5802 5805 5809 5812 5814 5817 5819 5822 5824 5827 5828 5830 5833 5834 5835 5836 5836 5837 5837 5837 5837 5836 5836 5835 5835 5835 5833 5832 5831 5829 5827 5823 5821 5819 5817 5815 5811 5809 5807 5804 5801 5798 5796
5793 5797 5801 5804 5806 5809 5811 5814 5816 5819 5820 5822 5825 5826 5828 5829 5830 5830 5830 5830 5830 5830 5829 5828 5827 5827 5827 5825 5825 5822 5819 5818 5815 5813 5810 5807 5806 5804 5802 5799 5796 5792 5788
5782 5787 5792 5795 5798 5801 5803 5805 5807 5811 5813 5813 5816 5819 5822 5822 5822 5822 5822 5822 5822 5823 5822 5821 5820 5819 5818 5818 5816 5816 5813 5811 5808 5806 5803 5801 5799 5797 5796 5793 5789 5786 5783
5771 5775 5781 5785 5789 5792 5794 5796 5798 5803 5805 5805 5808 5811 5813 5815 5814 5815 5815 5814 5815 5815 5814 5813 5811 5810 5811 5810 5809 5808 5806 5805 5801 5800 5799 5795 5792 5790 5787 5784 5781 5778 5775
5761 5765 5770 5776 5779 5783 5785 5788 5790 5795 5799 5799 5800 5802 5805 5805 5806 5806 5805 5806 5806 5806 5805 5805 5804 5803 5803 5803 5801 5800 5798 5796 5794 5791 5789 5787 5783 5781 5778 5775 5771 5769 5766
5753 5757 5761 5764 5768 5773 5776 5780 5783 5788 5791 5792 5791 5794 5794 5795 5794 5797 5796 5797 5796 5796 5797 5797 5796 5794 5794 5793 5793 5791 5789 5788 5785 5783 5780 5778 5773 5770 5768 5766 5762 5759 5757
5748 5749 5753 5758 5761 5765 5767 5771 5776 5778 5780 5783 5784 5784 5784 5784 5784 5786 5789 5787 5787 5787 5787 5787 5786 5785 5783 5783 5783 5780 5778 5777 5775 5773 5770 5769 5765 5761 5758 5754 5750 5748 5746
5739 5741 5744 5749 5755 5758 5760 5764 5766 5770 5772 5774 5775 5776 5777 5777 5776 5776 5779 5781 5779 5778 5778 5777 5776 5776 5774 5774 5774 5772 5771 5769 5767 5764 5761 5759 5754 5751 5747 5741 5737 5735 5733
5732 5736 5739 5742 5747 5751 5753 5755 5757 5762 5765 5766 5766 5767 5768 5768 5767 5768 5768 5769 5770 5768 5768 5767 5767 5766 5766 5766 5765 5765 5762 5760 5758 5753 5750 5746 5742 5738 5733 5730 5729 5725 5723
5725 5729 5732 5735 5739 5741 5743 5745 5748 5751 5754 5755 5756 5756 5758 5758 5758 5759 5757 5758 5758 5758 5758 5758 5758 5757 5757 5758 5755 5753 5752 5749 5747 5743 5739 5736 5731 5728 5724 5722 5718 5715 5713
5719 5722 5724 5726 5730 5732 5732 5734 5738 5741 5745 5744 5745 5749 5749 5749 5749 5748 5749 5748 5749 5749 5750 5751 5749 5748 5748 5748 5747 5744 5743 5741 5738 5734 5731 5726 5722 5717 5713 5709 5707 5704 5701
5710 5714 5718 5714 5722 5727 5724 5723 5725 5728 5732 5734 5736 5738 5739 5739 5738 5738 5738 5739 5740 5741 5743 5743 5742 5740 5741 5740 5739 5736 5734 5731 5728 5722 5718 5714 5710 5706 5702 5698 5695 5694 5693
5706 5707 5710 5713 5716 5716 5716 5716 5718 5720 5720 5722 5723 5724 5725 5727 5728 5728 5729 5731 5732 5734 5734 5733 5732 5731 5730 5728 5727 5725 5722 5719 5715 5711 5707 5704 5700 5695 5692 5690 5687 5684 5683
5697 5698 5701 5702 5705 5707 5708 5708 5709 5710 5712 5713 5713 5714 5716 5719 5721 5722 5723 5723 5723 5724 5725 5724 5723 5722 5722 5720 5719 5716 5712 5708 5706 5702 5697 5693 5691 5686 5683 5681 5678 5674 5673
5691 5693 5694 5695 5698 5701 5701 5699 5701 5701 5702 5704 5704 5706 5708 5710 5711 5713 5713 5713 5714 5715 5716 5715 5714 5712 5712 5710 5708 5704 5702 5698 5695 5692 5687 5682 5680 5677 5672 5670 5667 5666 5665
5682 5683 5684 5685 5687 5689 5692 5693 5693 5695 5695 5695 5698 5699 5699 5701 5702 5702 5702 5703 5703 5704 5705 5705 5705 5703 5701 5700 5697 5695 5692 5688 5686 5682 5680 5676 5671 5668 5663 5661 5658 5656 5654
5671 5673 5673 5675 5675 5676 5678 5680 5681 5681 5683 5685 5686 5687 5689 5690 5690 5693 5692 5692 5692 5693 5695 5694 5694 5693 5690 5689 5688 5686 5682 5679 5676 5673 5669 5664 5661 5658 5653 5649 5647 5647 5645
5656 5658 5659 5660 5662 5663 5664 5665 5666 5668 5669 5670 5672 5674 5675 5677 5678 5680 5680 5680 5682 5683 5683 5683 5682 5683 5680 5678 5677 5674 5672 5669 5666 5661 5659 5655 5650 5649 5645 5641 5641 5638 5636
5643 5644 5646 5647 5648 5648 5650 5651 5652 5654 5656 5658 5659 5660 5663 5665 5666 5667 5668 5668 5671 5670 5672 5671 5671 5670 5670 5669 5667 5663 5662 5658 5655 5651 5648 5644 5642 5638 5636 5634 5632 5630 5628
5626 5627 5630 5631 5631 5633 5633 5634 5635 5638 5641 5642 5644 5647 5648 5650 5652 5653 5655 5657 5657 5658 5659 5659 5659 5659 5659 5658 5656 5653 5650 5647 5644 5641 5638 5635 5631 5627 5627 5626 5624 5622 5620
5609 5609 5610 5612 5614 5615 5615 5617 5619 5622 5624 5627 5629 5631 5634 5635 5637 5639 5640 5642 5643 5645 5646 5647 5647 5647 5646 5645 5645 5643 5640 5637 5634 5630 5628 5623 5622 5619 5619 5617 5616 5615 5614
5587 5588 5589 5590 5592 5594 5596 5597 5600 5603 5605 5608 5611 5614 5617 5619 5621 5624 5625 5627 5630 5630 5632 5633 5635 5634 5633 5632 5631 5631 5627 5625 5621 5616 5614 5614 5611 5611 5611 5609 5608 5607 5607
5565 5566 5567 5568 5570 5573 5575 5577 5581 5585 5587 5589 5592 5595 5599 5602 5605 5608 5610 5613 5615 5615 5618 5621 5621 5620 5622 5623 5618 5618 5615 5613 5609 5604 5603 5605 5603 5603 5602 5601 5600 5600 5600